Regional Weather Roundup
Issued by NWS

Home | Current Version | Previous Version | Text Only | Print | Product List | Glossary On
Versions: 1 2 3 4 5 6 7 8 9 10 11 12 13 14 15 16 17 18 19 20 21 22 23 24 25 26 27 28 29 30 31 32 33 34 35 36 37 38 39 40 41 42 43 44 45 46 47 48 49 50
000
ASCA44 KEWX 261920
RWRMX

LATIN AMERICA AND CARIBBEAN REGIONAL WEATHER ROUNDUP
NATIONAL WEATHER SERVICE AUSTIN/SAN ANTONIO TX
100 PM CST MON JAN 26 2015

NOTE: "FAIR" INDICATED FEW OR NO CLOUDS BELOW 12,000 FEET WITH NO
SIGNIFICANT WEATHER AND/OR OBSTRUCTIONS TO VISIBILITY.

BAJA CALIFORNIA

CITY           SKY/WX    TMP DP  RH WIND       PRES   REMARKS
LORETO         CLOUDY    66  59  77 CALM      30.07F
LA PAZ         CLOUDY    70  64  83 NW12      30.08
MEXICALI       CLOUDY    63  54  72 E6        30.12
S.J. DEL CABO  PTSUNNY   73  64  73 SW7       30.06
TIJUANA        PTSUNNY   75  36  23 NE9       30.04S

NORTHWESTERN MEXICO

CITY           SKY/WX    TMP DP  RH WIND       PRES   REMARKS
CULIACAN       CLOUDY    82  64  54 CALM      30.03
DURANGO        PTSUNNY   57  48  72 CALM      30.36F
GUAYMAS        CLOUDY    75  61  60 CALM      30.03
HERMOSILLO     CLOUDY    73  55  53 N9        30.12
CD. JUAREZ     PTSUNNY   52  34  50 E9        30.32
LOS MOCHIS     CLOUDY    77  59  53 CALM      30.06S
OBREGON        CLOUDY    73  54  49 N6        30.05

NORTHEASTERN MEXICO

CITY           SKY/WX    TMP DP  RH WIND       PRES   REMARKS
CHIHUAHUA      CLOUDY    54  27  35 N5        30.35
MATAMOROS      PTSUNNY   75  48  38 E6        30.31
MONTERREY      PTSUNNY   68  32  26 SE6       30.27F
NUEVO LAREDO   PTSUNNY   72  46  40 CALM      30.24
PIEDRAS NEGRAS MOSUNNY   68  43  40 CALM      30.31F
REYNOSA        MOSUNNY   72  28  20 CALM      30.27
SALTILLO       CLOUDY    72  36  26 NW9       30.37F
TORREON        CLOUDY    55  39  54 CALM      30.33
CD. VICTORIA   PTSUNNY   72  36  26 N6        30.33

WESTERN MEXICO

CITY           SKY/WX    TMP DP  RH WIND       PRES   REMARKS
AGUASCALIENTES PTSUNNY   66  32  28 N6        30.39
COLIMA         PTSUNNY   84  57  39 SW9       30.08F
DEL BAJIO      PTSUNNY   70  34  26 CALM      30.41F
GUADALAJARA    CLOUDY    66  50  55 N3        30.31
MANZANILLO     PTSUNNY   82  72  69 SW7       29.93
MAZATLAN       CLOUDY    79  63  57 W9        30.00F
P. VALLARTA    PTSUNNY   84  63  48 NW5       29.98F
URUAPAN        MOSUNNY   75  52  43 SE7       30.24F

CENTRAL MEXICO

CITY           SKY/WX    TMP DP  RH WIND       PRES   REMARKS
CUERNAVACA       N/A    N/A N/A N/A MISG        N/A
MEXICO CITY    PTSUNNY   64  39  39 N5        30.39F
MORELIA        PTSUNNY   68  43  40 CALM      30.32
POZA RICA      MOSUNNY   79  50  36 N12       30.28F
PUEBLA         PTSUNNY   68  36  30 NE8       30.37F
QUERETARO      PTSUNNY   66  23  19 E13       30.39F
S. LUIS POTOSI MOSUNNY   64   3   9 CALM      30.38
TAMPICO        PTSUNNY   70  37  30 NE12      30.28F
TOLUCA         MOSUNNY   66  36  32 SW3       30.43

SOUTHERN MEXICO

CITY           SKY/WX    TMP DP  RH WIND       PRES   REMARKS
ACAPULCO       PTSUNNY   84  73  70 S5        29.92F HX  91
B. DE HUATULCO MOSUNNY   84  72  65 S6        29.96
OAXACA         PTSUNNY   73  41  31 N3        30.27F
P. ESCONDIDO   MOSUNNY   81  73  78 S9        30.08F
VERACRUZ       PTSUNNY   73  54  49 NE9       30.24F
ZIHUATANEJO    SUNNY     88  73  62 SW12      29.92  HX  96

YUCATAN PENINSULA

CITY           SKY/WX    TMP DP  RH WIND       PRES   REMARKS
CAMPECHE       PTSUNNY   73  63  68 NW12G23   30.13F
CANCUN         PTSUNNY   75  59  57 NW14      30.08F
CHETUMAL       MOSUNNY   77  68  73 N9        30.08F
CD. DEL CARMEN CLOUDY    73  63  68 N9        30.16
COZUMEL        MOSUNNY   77  59  53 N15       30.09F
MERIDA         PTSUNNY   75  57  53 NW12G23   30.13F
MINATITLAN     CLOUDY    72  64  78 N12G28    30.15
TAPACHULA      MOSUNNY   86  73  66 W12       29.90F HX  93
TUX. GUTIERREZ PTSUNNY   75  57  53 NW23      30.10F
VILLAHERMOSA   LGT RAIN  68  64  88 NE8       30.20F

CENTRAL AMERICA

CITY           SKY/WX    TMP DP  RH WIND       PRES   REMARKS
BELIZE CITY    MOSUNNY   81  63  54 NW12      30.08F
MANAGUA        PTCLDY    90  64  43 NE23      29.89F HX  91

CARIBBEAN

CITY           SKY/WX    TMP DP  RH WIND       PRES   REMARKS
ARUBA          MOSUNNY   86  70  58 E20       29.83F HX  90
CURACAO        MOSUNNY   86  72  62 E16       29.86F HX  92
KINGSTON       MOSUNNY   84  73  70 SE17      29.94S HX  91
NASSAU         PTSUNNY   75  55  50 W21       29.89F
SAN JUAN       MOSUNNY   84  70  61 E15G21    29.96F
SANTO DOMINGO  MOSUNNY   86  72  62 S9        29.94S HX  92
ST. KITTS      PTSUNNY   82  70  65 E16       29.97S
ST. MAARTEN    MOSUNNY   82  70  65 E12       29.97F

$$




USA.gov is the U.S. government's official web portal to all federal, state and local government web resources and services.